Flag for Canada Weather past 2 weeks in Nelson, British Columbia, Canada

Now
47 °F

Cool.


Feels Like: 46 °F
Forecast: 31 / 51 °F
Wind: 5 mph from Southeast

Location: Nelson

Current Time: Sep 4, 2015 at 1:34:02 AM

Latest Report: Sep 4, 2015 at 1:00 AM


Visibility: N/A

Pressure: 30.02 "Hg (28.05 "Hg at 560m altitude)

Humidity: 81%

Dew point: 42 °F

Location of NelsonLocation

Historic Weather in Nelson — Graph

°F

Nelson temperature yesterday

Maximum temperature yesterday: 65 °F (at 5:00 PM)
Minimum temperature yesterday: 44 °F (at 5:00 AM)
Average temperature yesterday: 53 °F

Past Weeks' High & Low Weather Summary

 TemperatureHumidityPressure
High89 °F (Aug 20, 4:00 PM)100% (Sep 1, 12:00 AM)30.25 "Hg (Sep 1, 12:00 AM)
Low44 °F (Sep 3, 5:00 AM)22% (Aug 20, 3:00 PM)29.52 "Hg (Aug 21, 2:00 AM)
Average61 °F63%29.89 "Hg
* Reported Midnight between Aug 19 and Aug 20 — Midnight between Sep 3 and Sep 4, Nelson, Weather by CustomWeather, © 2015

Note: Actual official high and low records may vary slightly from our data, if they occured in-between our weather recording intervals... More about our weather records

Advertising

Nelson weather history for previous 24 hours

 ConditionsComfort  
Time TempWeatherWind HumidityBarometerVisibility
12:00 AM
Fri, Sep 4
50 °FCool.5 mph85%30.01 "HgN/A
11:00 PM
Thu, Sep 3
49 °FCool.6 mph88%30.01 "HgN/A
10:00 PM51 °FCool.3 mph82%30.01 "HgN/A
9:00 PM53 °FCool.6 mph75%29.98 "HgN/A
8:00 PM54 °FCool.5 mph75%29.98 "HgN/A
7:00 PM56 °FCool.8 mph68%29.95 "HgN/A
6:00 PM63 °FMild.6 mph47%29.92 "HgN/A
5:00 PM65 °FMild.6 mph44%29.92 "HgN/A
4:00 PM61 °FRefreshingly cool.7 mph49%29.93 "HgN/A
3:00 PM58 °FRefreshingly cool.12 mph57%29.93 "HgN/A
2:00 PM64 °FMild.9 mph40%29.91 "HgN/A
1:00 PM59 °FCool.10 mph64%29.92 "HgN/A
12:00 PM61 °FCool.9 mph62%29.93 "HgN/A
11:00 AM58 °FCool.7 mph67%29.94 "HgN/A
10:00 AM58 °FCool.7 mph67%29.95 "HgN/A
9:00 AM54 °FCool.6 mph81%29.96 "HgN/A
8:00 AM50 °FCool.2 mph77%29.97 "HgN/A
7:00 AM47 °FCool.3 mph85%29.95 "HgN/A
6:00 AM47 °FCool.3 mph81%29.94 "HgN/A
5:00 AM44 °FQuite cool.3 mph95%29.92 "HgN/A
4:00 AM47 °FCool.6 mph84%29.92 "HgN/A
3:00 AM45 °FCool.2 mph87%29.91 "HgN/A
2:00 AM45 °FQuite cool.1 mph87%29.90 "HgN/A
1:00 AM46 °FCool.1 mph86%29.91 "HgN/A
Weather by CustomWeather, © 2015

See weather overviewHow to use our weather pages